This is the latest recevied weather packets stored in our database for station/object DJ2DS-13. If no packets are shown the sender has not sent any weather packets the latest 10 day(s).
| Time | Temp. | Humidity | Pressure | Rain* | Wind** | Luminosity | Snow |
|---|---|---|---|---|---|---|---|
| 1778135084 | 8.89° C | 92% | 1013.6 hPa | 0 mm | - | 179 W/m² | - |
| 1778134783 | 8.33° C | 92% | 1013.4 hPa | 0 mm | - | 192 W/m² | - |
| 1778134483 | 8.33° C | 92% | 1013.4 hPa | 0 mm | - | 153 W/m² | - |
| 1778134182 | 8.33° C | 92% | 1013.4 hPa | 0 mm | - | 142 W/m² | - |
| 1778133882 | 8.33° C | 92% | 1013.4 hPa | 0 mm | - | 130 W/m² | - |
| 1778133583 | 7.78° C | 92% | 1013.5 hPa | 0 mm | - | 118 W/m² | - |
| 1778133283 | 7.78° C | 92% | 1013.4 hPa | 0 mm | - | 109 W/m² | - |
| 1778132982 | 7.78° C | 92% | 1013.3 hPa | 0 mm | - | 104 W/m² | - |
| 1778132683 | 7.22° C | 92% | 1013.2 hPa | 0 mm | - | 98 W/m² | - |
| 1778132384 | 7.22° C | 92% | 1013.2 hPa | 0 mm | - | 97 W/m² | - |
| 1778132082 | 6.67° C | 92% | 1013.2 hPa | 0 mm | - | 79 W/m² | - |
| 1778131782 | 6.67° C | 92% | 1013.1 hPa | 0 mm | - | 76 W/m² | - |
| 1778131482 | 6.67° C | 92% | 1013 hPa | 0 mm | - | 69 W/m² | - |
| 1778131183 | 6.11° C | 92% | 1013 hPa | 0 mm | - | 62 W/m² | - |
| 1778130883 | 5.56° C | 92% | 1013 hPa | 0 mm | - | 72 W/m² | - |
| 1778130583 | 5° C | 92% | 1013 hPa | 0 mm | - | 51 W/m² | - |
| 1778130283 | 5° C | 92% | 1013 hPa | 0 mm | - | 53 W/m² | - |
| 1778129982 | 4.44° C | 92% | 1012.8 hPa | 0 mm | - | 55 W/m² | - |
| 1778129681 | 4.44° C | 91% | 1012.7 hPa | 0 mm | - | 48 W/m² | - |
| 1778129382 | 3.89° C | 91% | 1012.7 hPa | 0 mm | - | 48 W/m² | - |
| 1778129080 | 3.89° C | 91% | 1012.7 hPa | 0 mm | - | 35 W/m² | - |
| 1778128780 | 3.89° C | 91% | 1012.6 hPa | 0 mm | - | 26 W/m² | - |
| 1778128478 | 3.89° C | 91% | 1012.5 hPa | 0 mm | - | 19 W/m² | - |
| 1778128179 | 3.33° C | 91% | 1012.5 hPa | 0 mm | - | 19 W/m² | - |
| 1778127879 | 3.89° C | 91% | 1012.4 hPa | 0 mm | - | 18 W/m² | - |
* Rain latest hour (hover to see other rain measurements)
** Current wind speed in m/s (hover to see current wind gust speed)